Wind_Speed
7 6 5 5 4 3 3 2 2 2 1 1 2 2 2 2 1 1 2 2 2 3 3 3 3 3 4 5 5 5 6 6 5 5 5 5 5 4 4 4 4 4 4
7 6 5 5 4 3 3 3 2 2 1 2 2 2 2 2 1 0 1 2 2 2 3 4 3 3 3 4 5 6 6 6 6 7 7 6 6 6 6 5 5 6 5
8 7 6 5 4 3 3 3 2 2 1 2 2 2 1 1 1 0 0 0 1 2 3 3 4 4 4 4 4 5 6 6 7 7 7 7 7 7 7 7 7 7 7
9 8 7 6 4 4 3 3 2 1 1 1 1 1 1 1 1 1 1 0 0 1 2 3 4 3 4 4 4 4 5 6 7 7 8 8 9 9 8 8 8 8 8
10 9 8 7 5 4 4 4 3 2 1 1 0 0 1 1 1 1 1 0 1 0 1 2 3 3 3 4 4 4 5 6 6 6 7 8 9 9 10 10 10 9 9
11 10 9 8 7 6 5 4 3 3 2 1 0 0 0 1 1 1 1 1 1 1 1 0 1 2 3 4 4 5 5 6 6 6 7 7 7 8 9 9 10 10 10
11 11 10 9 8 7 6 5 5 4 3 2 1 1 1 1 0 0 1 1 1 1 1 1 1 2 3 3 4 5 6 6 7 7 7 7 8 8 9 9 10 10 10
12 12 10 9 9 8 7 7 6 5 5 4 3 3 2 2 1 1 1 1 1 2 2 3 3 3 4 4 5 5 6 6 7 8 8 8 9 9 10 10 11 11 11
13 13 12 10 9 9 8 8 8 7 6 6 5 4 4 3 3 2 2 2 2 2 3 3 4 4 5 5 6 6 6 7 7 7 8 9 9 10 10 11 12 12 13
13 12 12 11 10 10 9 9 9 9 8 7 6 6 6 5 4 4 4 4 4 4 5 5 5 6 6 7 7 8 8 8 8 9 9 10 10 11 12 12 13 13 14
13 13 13 12 11 11 10 10 10 10 10 9 8 8 8 7 7 6 6 6 6 7 7 7 8 8 8 9 9 10 10 10 11 11 11 12 12 12 13 13 14 15 16
13 14 14 14 13 12 12 12 11 12 11 11 11 10 10 10 9 9 9 9 9 9 10 10 11 11 11 11 11 12 12 12 13 13 14 14 14 14 14 15 16 17 17
13 13 14 14 14 14 13 13 13 13 13 13 13 13 12 12 12 12 12 12 12 12 13 13 13 13 13 14 14 14 14 15 15 16 16 16 17 17 17 18 18 19 20
12 13 14 14 14 14 15 14 14 14 15 15 15 14 14 14 14 15 15 15 16 16 16 16 16 16 16 17 17 17 18 18 19 19 20 20 20 21 21 21 22 22 22
13 13 14 15 15 15 16 16 15 15 16 16 16 16 16 16 17 18 18 18 18 19 19 20 19 19 20 20 21 21 21 21 22 22 23 23 24 24 25 25 26 26 26
13 14 14 14 15 15 16 17 17 17 16 17 18 18 19 19 20 21 21 21 21 21 22 23 22 22 23 22 23 23 24 25 25 25 26 26 27 27 28 29 29 30 30
13 14 15 16 17 17 17 17 18 18 18 18 19 19 20 21 22 22 22 23 23 24 24 25 24 24 25 26 26 26 26 26 27 27 28 29 29 30 31 32 32 33 33
14 15 15 16 17 18 18 18 18 19 19 20 20 21 22 22 23 23 24 25 25 25 26 27 27 27 27 28 29 29 29 29 29 30 31 31 32 32 33 34 34 35 35
14 15 16 17 18 19 19 19 20 21 22 22 23 24 24 24 24 25 25 26 27 28 28 30 30 30 30 31 31 32 33 33 33 33 33 34 34 35 35 36 36 37 38
14 15 16 17 19 19 20 20 21 22 22 23 24 25 26 27 26 27 27 28 29 30 30 31 31 31 32 32 33 34 35 35 36 35 35 36 36 37 38 39 39 41 42
15 16 17 18 20 21 22 22 23 23 23 24 25 26 27 29 29 29 29 30 31 32 33 33 33 33 34 35 35 35 36 37 37 37 38 39 39 40 41 42 43 43 44
15 16 17 18 19 20 21 22 23 24 24 25 26 27 29 30 31 31 31 32 33 33 34 34 35 35 35 36 37 37 38 39 39 40 40 42 43 44 44 45 45 45 46
17 17 17 18 18 19 20 22 23 25 26 26 27 29 30 30 31 32 33 34 34 34 34 34 35 35 37 38 39 39 40 41 41 42 42 43 45 46 47 48 49 49 50
18 18 19 19 20 21 22 23 24 26 27 28 29 30 30 30 31 32 33 34 34 34 34 35 36 37 38 39 39 40 41 41 42 43 43 45 46 48 49 51 52 52 53
19 20 20 21 22 23 24 25 27 27 28 28 29 30 30 30 30 32 33 34 34 34 34 35 36 37 39 40 41 41 41 43 44 45 46 47 48 49 50 52 53 54 55
21 22 23 23 23 24 25 26 27 27 28 28 28 28 30 30 31 33 34 35 35 35 35 36 37 38 39 39 41 42 43 45 46 47 47 49 50 51 51 52 53 55 56
Wind_Direction
218 221 225 217 219 215 210 204 190 184 184 167 154 154 156 174 154 216 241 235 236 231 229 229 239 240 235 237 240 240 239 239 243 243 247 253 258 260 259 261 260 264 268
218 221 223 224 225 218 213 204 191 188 164 145 150 147 138 137 136 265 252 240 242 243 237 234 230 234 239 246 249 250 248 249 252 249 248 253 258 258 260 261 261 262 268
217 223 228 226 226 222 213 206 190 174 165 146 140 147 150 138 135 153 203 286 239 234 237 237 234 242 248 247 251 255 253 255 257 253 250 253 258 259 260 260 262 263 263
222 227 227 228 231 226 213 205 195 175 168 152 146 158 154 114 114 129 129 61 10 244 242 237 233 239 251 251 249 252 257 258 261 258 255 258 260 260 261 262 262 264 263
222 224 222 226 228 221 217 212 213 199 185 151 145 149 128 114 103 109 114 44 15 329 253 234 229 237 249 257 256 261 264 263 263 263 265 264 264 264 263 262 263 264 265
218 220 220 223 224 221 220 219 217 209 203 197 201 177 131 105 95 90 71 59 52 51 41 294 240 249 262 267 266 263 264 262 264 270 273 270 266 265 266 264 263 264 264
218 220 220 222 223 226 227 223 220 221 220 218 225 229 244 247 263 54 47 42 23 11 3 344 297 292 296 288 284 277 270 268 270 272 273 270 269 270 270 267 265 266 266
219 217 220 225 227 233 232 231 230 228 223 226 231 232 242 253 265 283 324 339 342 341 336 328 313 301 305 303 295 288 282 280 277 274 275 273 273 274 275 272 268 266 265
217 219 224 227 228 233 235 235 232 230 230 235 239 243 245 246 256 270 296 307 319 325 319 314 308 302 302 301 300 294 290 287 285 282 278 277 278 280 280 277 273 269 268
217 221 224 226 229 234 236 235 233 233 236 240 245 249 252 256 261 270 278 289 302 306 307 305 303 302 298 296 293 292 290 287 285 282 280 280 280 282 284 281 278 275 274
222 225 227 229 229 232 234 235 234 235 238 242 247 250 253 260 265 268 273 281 289 293 294 295 297 299 298 296 295 293 291 289 287 285 284 283 283 284 282 282 281 279 278
223 226 231 232 232 232 235 239 241 242 243 246 249 251 256 261 265 268 272 277 281 285 289 291 292 293 293 293 293 292 291 289 289 287 286 286 286 285 285 284 283 282 281
223 227 232 234 235 235 237 242 247 250 249 251 252 254 257 261 265 269 274 278 280 283 285 287 289 290 290 290 291 290 288 287 286 287 285 284 284 284 284 284 284 284 283
227 234 237 238 238 240 241 246 251 253 254 254 255 257 259 262 267 271 275 279 281 282 284 285 286 288 288 288 288 289 286 286 287 285 284 283 282 283 283 283 283 283 283
232 237 241 243 243 245 245 247 251 253 254 255 257 258 259 264 269 272 275 278 280 283 284 284 284 286 287 287 288 288 286 286 285 284 283 282 282 282 282 282 282 282 282
239 241 244 246 245 248 252 254 255 254 257 259 259 260 262 266 271 273 274 277 280 282 284 284 285 285 285 287 285 285 284 285 285 283 282 281 281 281 281 280 280 281 280
248 249 248 248 247 249 254 256 254 255 259 261 262 266 269 271 273 273 274 277 279 281 283 284 285 286 286 286 285 285 286 286 285 284 283 283 282 282 282 281 280 280 280
255 255 254 253 250 252 256 259 261 260 261 264 266 268 270 272 276 275 275 277 279 281 282 283 285 284 285 286 286 285 284 284 283 284 284 283 283 283 283 282 282 280 280
260 259 256 257 256 257 261 264 265 263 265 266 267 269 270 273 275 275 275 277 279 280 281 282 284 284 284 284 284 285 285 285 284 283 282 282 282 283 283 282 282 281 281
267 265 264 264 261 260 262 264 265 265 267 268 270 271 271 272 275 276 279 280 280 281 282 283 284 284 284 284 285 285 285 285 285 285 285 284 283 283 282 282 283 283 282
271 269 269 268 265 264 266 266 267 267 268 270 272 273 276 276 276 278 279 280 282 283 282 282 283 283 284 285 285 285 285 285 285 287 287 286 286 285 283 283 283 283 282
276 275 274 273 272 271 270 271 271 271 272 274 276 278 280 280 279 280 281 282 283 284 284 283 283 284 285 285 285 286 285 285 286 287 287 287 288 287 286 284 284 284 283
278 281 279 278 278 277 276 275 277 277 278 278 279 280 282 283 282 282 284 285 286 286 287 286 284 286 287 287 287 287 287 286 286 287 288 288 289 289 288 287 286 285 285
281 284 282 281 282 281 279 279 280 280 280 280 280 282 283 284 284 285 287 286 286 287 289 288 287 287 288 288 288 288 288 288 289 290 290 290 289 289 289 288 287 286 286
282 282 282 283 284 283 282 282 283 282 282 283 282 282 284 286 286 287 288 287 287 287 288 289 289 290 290 290 290 289 289 289 290 291 291 290 290 290 289 288 287 287 287
284 283 283 284 286 288 286 283 283 283 283 283 284 284 285 286 286 287 287 288 289 289 289 289 290 291 292 292 292 292 292 292 292 293 293 292 290 289 289 288 288 288 287
Height
5886 5887 5888 5888 5889 5889 5890 5890 5891 5891 5891 5891 5892 5893 5893 5893 5893 5893 5894 5894 5895 5895 5896 5896 5897 5898 5899 5899 5900 5901 5902 5903 5903 5904 5905 5905 5906 5906 5907 5907 5907 5907 5908
5885 5886 5887 5888 5889 5889 5890 5890 5891 5891 5891 5892 5892 5893 5893 5893 5893 5893 5894 5894 5895 5895 5895 5896 5897 5898 5898 5899 5899 5900 5901 5902 5902 5903 5904 5904 5905 5905 5906 5906 5906 5906 5907
5884 5885 5887 5887 5888 5889 5890 5890 5891 5891 5892 5892 5892 5893 5893 5893 5893 5893 5893 5893 5894 5894 5895 5896 5896 5897 5897 5898 5899 5899 5900 5900 5901 5902 5902 5903 5903 5904 5904 5904 5905 5905 5905
5883 5885 5886 5887 5888 5889 5889 5890 5891 5891 5892 5892 5892 5893 5893 5893 5893 5894 5894 5894 5894 5894 5894 5895 5896 5896 5897 5897 5898 5898 5899 5899 5900 5900 5901 5901 5901 5902 5902 5903 5903 5903 5903
5882 5884 5885 5886 5887 5888 5889 5890 5891 5891 5892 5892 5893 5893 5893 5894 5894 5894 5894 5894 5894 5894 5894 5895 5895 5895 5896 5896 5897 5897 5897 5898 5898 5899 5899 5899 5899 5900 5900 5900 5901 5901 5901
5881 5883 5884 5886 5887 5888 5888 5889 5890 5891 5892 5892 5893 5893 5893 5894 5894 5894 5894 5894 5894 5894 5894 5894 5895 5895 5895 5895 5895 5896 5896 5896 5897 5897 5897 5897 5897 5898 5898 5898 5899 5899 5899
5880 5881 5883 5885 5886 5887 5888 5889 5890 5890 5891 5892 5893 5893 5893 5894 5894 5894 5894 5894 5894 5894 5894 5894 5894 5894 5895 5895 5895 5895 5895 5895 5895 5895 5896 5895 5896 5896 5896 5896 5896 5897 5897
5878 5880 5882 5884 5885 5886 5887 5888 5889 5890 5891 5891 5892 5893 5893 5894 5894 5894 5894 5894 5894 5894 5894 5894 5894 5894 5894 5894 5894 5894 5894 5894 5893 5893 5894 5894 5894 5894 5894 5894 5894 5894 5894
5876 5878 5881 5882 5883 5885 5886 5887 5888 5889 5890 5891 5891 5892 5893 5893 5893 5894 5894 5894 5894 5894 5894 5893 5893 5893 5893 5893 5893 5892 5892 5892 5892 5891 5891 5891 5891 5891 5891 5891 5891 5891 5891
5875 5877 5879 5881 5882 5883 5884 5886 5887 5888 5889 5890 5890 5891 5892 5892 5892 5893 5893 5893 5893 5893 5893 5893 5892 5892 5892 5891 5891 5891 5890 5890 5890 5889 5889 5889 5889 5889 5888 5888 5888 5888 5888
5873 5876 5877 5879 5880 5882 5883 5884 5885 5886 5887 5888 5889 5889 5890 5890 5891 5891 5891 5892 5892 5891 5891 5891 5891 5890 5890 5889 5889 5889 5888 5888 5887 5887 5886 5886 5886 5886 5885 5885 5885 5884 5884
5871 5873 5875 5877 5878 5880 5881 5882 5883 5884 5885 5886 5887 5888 5888 5888 5889 5889 5889 5890 5890 5890 5889 5889 5889 5888 5888 5887 5887 5886 5886 5885 5885 5884 5884 5883 5883 5883 5882 5882 5881 5881 5880
5869 5871 5873 5875 5876 5878 5879 5880 5881 5882 5883 5884 5884 5885 5886 5886 5887 5887 5887 5887 5887 5887 5887 5886 5886 5885 5885 5884 5883 5883 5882 5882 5881 5881 5880 5880 5879 5879 5878 5877 5877 5876 5875
5868 5869 5871 5872 5874 5875 5876 5878 5879 5879 5880 5881 5881 5882 5883 5883 5884 5884 5884 5884 5884 5884 5883 5883 5882 5882 5881 5880 5880 5879 5878 5877 5877 5876 5875 5875 5874 5874 5873 5872 5871 5870 5870
5866 5867 5868 5870 5871 5872 5873 5874 5875 5876 5877 5878 5878 5879 5879 5880 5880 5880 5880 5880 5881 5880 5879 5879 5878 5878 5877 5876 5875 5874 5874 5873 5872 5871 5870 5869 5869 5868 5867 5866 5865 5864 5863
5863 5864 5865 5867 5868 5869 5870 5871 5872 5873 5873 5874 5875 5875 5875 5876 5876 5876 5876 5876 5875 5875 5874 5873 5873 5873 5871 5870 5870 5869 5868 5867 5866 5865 5864 5863 5862 5861 5860 5859 5858 5857 5856
5860 5861 5862 5863 5864 5865 5866 5867 5868 5869 5869 5870 5870 5871 5871 5871 5871 5871 5871 5870 5870 5870 5869 5868 5867 5867 5865 5864 5863 5862 5861 5861 5859 5857 5856 5855 5854 5853 5852 5851 5849 5848 5847
5857 5858 5859 5859 5860 5861 5862 5863 5864 5864 5865 5866 5866 5866 5866 5866 5866 5865 5865 5865 5864 5864 5863 5862 5861 5860 5859 5857 5856 5855 5854 5853 5852 5850 5849 5848 5846 5844 5843 5842 5840 5839 5837
5854 5854 5855 5855 5856 5857 5858 5858 5859 5860 5860 5860 5861 5861 5861 5861 5860 5860 5859 5858 5858 5857 5856 5855 5854 5853 5851 5850 5848 5847 5845 5844 5843 5842 5840 5839 5837 5835 5833 5832 5830 5828 5827
5851 5851 5851 5852 5852 5853 5853 5854 5854 5854 5855 5855 5855 5855 5855 5854 5854 5853 5852 5851 5850 5850 5849 5847 5846 5845 5843 5842 5840 5838 5837 5835 5833 5832 5831 5829 5827 5825 5823 5821 5819 5817 5815
5847 5847 5847 5848 5848 5848 5848 5849 5849 5849 5849 5849 5849 5849 5848 5848 5847 5846 5845 5844 5843 5842 5841 5839 5838 5836 5835 5833 5831 5829 5827 5825 5823 5821 5820 5818 5816 5814 5812 5810 5808 5805 5803
5843 5843 5843 5843 5843 5843 5843 5843 5843 5843 5843 5843 5842 5842 5841 5840 5839 5838 5837 5836 5835 5833 5832 5830 5829 5827 5825 5823 5821 5819 5817 5815 5813 5811 5809 5806 5804 5801 5799 5797 5794 5792 5789
5839 5839 5839 5838 5838 5838 5838 5838 5838 5837 5837 5836 5835 5835 5834 5833 5832 5831 5829 5828 5826 5825 5823 5821 5819 5818 5816 5814 5811 5809 5806 5804 5801 5799 5797 5794 5791 5788 5785 5782 5780 5777 5774
5835 5835 5834 5833 5833 5833 5832 5832 5831 5831 5830 5829 5828 5827 5826 5825 5824 5823 5821 5819 5818 5816 5814 5812 5810 5808 5806 5803 5801 5798 5795 5792 5790 5787 5785 5782 5778 5775 5771 5767 5764 5761 5758
5830 5830 5829 5828 5827 5827 5826 5825 5825 5824 5823 5822 5821 5820 5818 5817 5816 5814 5813 5811 5809 5807 5805 5802 5800 5798 5795 5792 5789 5787 5784 5781 5778 5775 5772 5768 5764 5761 5756 5752 5748 5744 5741
5825 5824 5823 5823 5822 5821 5820 5819 5818 5817 5816 5814 5813 5812 5811 5809 5808 5806 5804 5802 5800 5798 5795 5793 5790 5787 5784 5781 5778 5775 5771 5768 5764 5761 5757 5753 5749 5745 5742 5736 5731 5727 5723